#timestamp,LO_Frequency,Hit,StdDev 
1692453615.7,286047000.7,N
1692453635.5,286047000.2,N
1692453655.3,286047002.6,N
1692453675.2,286047000.1,N
1692453695.0,286047002.4,N
1692453695.9,286047002.4,N
1692453715.8,286047002.7,N
1692453735.6,286047002.4,N
1692453755.4,286046999.7,N
1692453775.3,286047002.8,N
1692453795.1,286047002.2,N
1692453815.9,286047002.6,N
1692453835.7,286047002.6,N
1692453855.5,286047000.2,N
1692453875.4,286047000.1,N
1692453895.2,286047002.3,N
1692453915.1,286047000.0,N
1692453916.0,286047000.0,N
1692453935.8,286047002.8,N
1692453955.6,286047002.7,N
1692453975.5,286046999.7,N
1692453995.3,286047002.7,N
1692454015.1,286047002.7,N
1692454035.9,286046999.8,N
1692454055.7,286046999.7,N
1692454075.6,286046999.7,N
1692454095.4,286046999.9,N
1692454115.2,286047000.4,N
1692454135.1,286047000.9,N
1692454136.0,286047000.9,N
1692454155.8,286047001.1,N
1692454175.6,286046999.8,N
1692454195.5,286047002.3,N
1692454215.3,286047000.2,N
1692454235.2,286047000.2,N
1692454255.9,286047000.4,N
1692454275.7,286047000.8,N
1692454295.6,286046998.2,N
1692454315.4,286046998.3,N
1692454335.2,286047000.9,N
1692454385.1,286046998.8,E
1692454395.0,286047000.5,N
1692454395.9,286047000.5,P
1692454415.8,286046999.7,P
1692454435.6,286047002.7,Y
1692454455.5,286046999.8,P
1692454475.3,286047002.7,P
1692454495.1,286047002.0,N
1692454515.9,286047001.4,N
1692454535.7,286047004.0,Y
1692454555.5,286047001.9,P
1692454575.4,286047001.5,P
1692454595.2,286047004.2,P
1692454615.1,286047001.3,N
1692454616.0,286047001.3,N
1692454635.8,286047004.1,Y
1692454655.6,286047002.6,P
1692454675.5,286047002.5,P
1692454695.3,286047002.5,P
1692454715.1,286047001.3,Y
1692454735.9,286047000.0,P
1692454755.7,286047000.2,N
1692454775.6,286047000.0,N
1692454795.4,286047002.8,N
1692454815.2,286047000.3,N
1692454835.1,286047002.4,N
1692454836.0,286047002.4,N
1692454855.8,286047000.1,N
1692454875.6,286046999.9,N
1692454895.5,286047000.7,N
1692454915.3,286047001.2,N
1692454935.2,286046998.4,N
1692454955.9,286046998.6,N
1692454975.7,286046998.5,N
1692454995.6,286046999.5,N
1692455015.4,286046999.2,N
1692455035.2,286046999.6,N
1692455055.1,286046997.3,N
1692455056.0,286046997.3,N
1692455075.8,286046997.5,N
1692455095.7,286046995.7,N
1692455115.5,286046993.8,Y
1692455135.3,286046994.0,P
1692455155.2,286046994.3,N
1692455175.0,286046994.6,N
1692455175.9,286046994.6,N
1692455195.7,286046996.3,N
1692455215.6,286046996.3,N
1692455235.4,286046993.8,Y
1692455255.3,286046998.8,P
1692455275.1,286046998.4,N
1692455276.0,286046998.4,N
1692455295.8,286046999.3,N
1692455315.7,286046998.2,N
1692455335.5,286047001.0,N
1692455355.3,286046998.4,N
1692455375.2,286046998.6,N
1692455395.0,286046998.1,N
1692455395.9,286046998.1,N
1692455415.8,286046998.3,N
1692455435.6,286046999.0,N
1692455455.4,286046996.5,Y
1692455475.3,286047000.8,P
1692455495.1,286047001.0,N
1692455515.8,286047000.7,N
1692455535.7,286047001.2,N
1692455555.5,286046998.1,N
1692455575.4,286047000.6,N
1692455595.2,286047000.9,N
1692455615.0,286047000.4,N
1692455615.9,286047000.4,N
1692455635.8,286047001.2,N
1692455655.6,286047000.3,N
1692455675.5,286046998.7,N
1692455695.3,286047000.8,N
1692455715.1,286047001.1,N
1692455735.9,286047000.6,N
1692455755.7,286047001.0,N
1692455775.5,286046998.2,N
1692455795.4,286046998.4,N
1692455815.2,286046998.3,N
1692455835.0,286046998.5,N
1692455836.0,286046998.5,N
1692455855.8,286046998.3,N
1692455875.6,286046998.3,N
1692455895.5,286046998.2,N
1692455915.3,286046998.5,N
1692455935.1,286046999.2,N
1692455955.9,286046997.1,N
1692455975.7,286046996.9,N
1692455995.5,286046996.7,N
1692456015.4,286046999.3,N
1692456035.2,286046997.0,N
1692456055.1,286046995.4,Y
1692456056.0,286046995.4,P
1692456075.8,286046997.6,N
1692456095.6,286046997.5,N
1692456115.5,286046995.4,Y
1692456135.3,286046998.2,P
1692456155.2,286046999.4,N
1692456175.9,286046998.4,N
1692456195.7,286046998.1,N
1692456215.6,286046999.0,N
1692456235.4,286046998.1,Y
1692456255.2,286047002.7,P
1692456275.1,286047002.1,N
1692456276.0,286047002.1,N
1692456295.8,286047002.0,N
1692456315.7,286047001.9,N
1692456335.5,286047001.9,N
1692456355.3,286047001.5,N
1692456375.2,286047000.1,N
1692456395.0,286046999.7,N
1692456395.9,286046999.7,N
1692456415.7,286047002.8,N
1692456435.6,286046999.7,N
1692456455.4,286046999.7,N
1692456475.3,286047002.3,N
1692456495.1,286046999.8,N
1692456496.0,286046999.8,N
1692456515.8,286047000.1,N
1692456535.7,286047000.0,N
1692456555.5,286047000.6,N
1692456575.4,286047000.3,N
1692456595.2,286047000.9,N
1692456615.0,286047000.3,N
1692456615.9,286047000.3,N
1692456635.8,286047000.3,N
1692456655.6,286047000.2,N
1692456675.4,286046999.7,N
1692456695.3,286046999.7,N
1692456715.1,286046999.7,N
1692456735.9,286046999.9,N
1692456755.7,286047000.7,N
1692456775.5,286046998.5,N
1692456795.4,286046999.0,N
1692456815.2,286046998.3,N
1692456835.0,286046998.3,N
1692456836.0,286046998.3,N
1692456855.8,286046998.5,N
1692456875.6,286046999.0,N
1692456895.5,286046997.0,N
1692456915.3,286046996.6,Y
1692456935.1,286047000.4,P
1692456955.9,286047000.6,N
1692456975.7,286047002.7,P
1692456995.6,286047000.4,N
1692457015.4,286046999.9,N
1692457035.2,286047002.4,N
1692457055.1,286047002.5,N
1692457056.0,286047002.5,N
1692457075.8,286047000.2,N
1692457095.6,286047000.3,N
1692457115.5,286047001.0,N
1692457135.3,286047000.0,N
1692457155.2,286047000.4,N
1692457175.9,286047000.5,N
1692457195.7,286047001.2,N
